Big Rapids, MI

11:30 AM EST on December 10, 2016 (GMT -0500)
Roben-Hood

Weather History for KRQB - December, 2012

Change the Weather History Date:

Thursday, December 13, 2012

  Actual Average Record
Temperature  
Mean Temperature 38 °F -  
Max Temperature 46 °F 34 °F 57 °F (2015)
Min Temperature 29 °F 19 °F -3 °F (1989)
Degree Days  
Heating Degree Days 28    
Moisture  
Dew Point 25 °F    
Average Humidity 64    
Maximum Humidity 92    
Minimum Humidity 38    
Precipitation  
Precipitation 0.00 in - - ()
Sea Level Pressure  
Sea Level Pressure 30.15 in    
Wind  
Wind Speed 8 mph (South)    
Max Wind Speed 18 mph    
Max Gust Speed 26 mph    
Visibility 10 miles    
Events      
Averages and records for this station are not official NWS values.
T = Trace of Precipitation, MM = Missing Value Source: NWS Daily Summary

Daily Weather History Graph

Daily Weather History Graph

Search for Another Location

Airport or City:

Trip Planner

Search our weather history database for the weather conditions in past years. The results will help you decide how hot, cold, wet, or windy it might be!

Date:

Astronomy

Dec. 13, 2012 Rise Set
Actual Time 8:07 AM EST 5:05 PM EST
Civil Twilight 7:34 AM EST 5:38 PM EST
Nautical Twilight 6:58 AM EST 6:14 PM EST
Astronomical Twilight 6:23 AM EST 6:49 PM EST
Moon 8:14 AM EST (12/13) 5:47 PM EST (12/13)
Length of Visible Light 10h 03m
Length of Day
8h 57m
New Moon, 0% of the Moon is Illuminated
Dec 13
New Moon
Dec 20
First Quarter
Dec 28
Full
Jan 4
Last Quarter
Jan 11
New

Hourly Weather History & Observations

Time (EST) Temp. Windchill Dew Point Humidity Pressure Visibility Wind Dir Wind Speed Gust Speed Precip Events Conditions
12:14 AM 33.6 °F 27.5 °F 23.5 °F 67% 30.23 in 10.0 mi South 6.9 mph - N/A   Clear
12:35 AM 33.8 °F 28.6 °F 23.2 °F 65% 30.24 in 10.0 mi South 5.8 mph - N/A   Clear
12:54 AM 34.7 °F 28.8 °F 23.0 °F 62% 30.24 in 10.0 mi South 6.9 mph - N/A   Clear
1:14 AM 34.7 °F 28.1 °F 22.8 °F 62% 30.23 in 10.0 mi South 8.1 mph - N/A   Clear
1:35 AM 34.5 °F 27.9 °F 23.0 °F 63% 30.23 in 10.0 mi South 8.1 mph - N/A   Clear
1:54 AM 34.9 °F 27.7 °F 23.7 °F 64% 30.23 in 10.0 mi South 9.2 mph - N/A   Clear
2:14 AM 35.2 °F 28.1 °F 23.9 °F 63% 30.23 in 10.0 mi South 9.2 mph - N/A   Clear
2:35 AM 35.4 °F 27.8 °F 24.1 °F 63% 30.23 in 10.0 mi South 10.4 mph - N/A   Clear
2:54 AM 34.9 °F 27.7 °F 23.9 °F 64% 30.23 in 10.0 mi SSW 9.2 mph - N/A   Clear
3:14 AM 34.7 °F 29.6 °F 23.9 °F 65% 30.23 in 10.0 mi SSW 5.8 mph - N/A   Clear
3:35 AM 34.2 °F 29.0 °F 24.3 °F 67% 30.24 in 10.0 mi SSW 5.8 mph - N/A   Clear
3:54 AM 34.0 °F 28.8 °F 24.4 °F 68% 30.24 in 10.0 mi SSW 5.8 mph - N/A   Clear
4:14 AM 33.4 °F 29.1 °F 24.6 °F 70% 30.24 in 10.0 mi SSW 4.6 mph - N/A   Clear
4:35 AM 32.7 °F 28.3 °F 24.6 °F 72% 30.23 in 10.0 mi South 4.6 mph - N/A   Clear
4:54 AM 32.0 °F 26.4 °F 24.6 °F 74% 30.22 in 10.0 mi South 5.8 mph - N/A   Clear
5:14 AM 31.8 °F 26.2 °F 24.1 °F 73% 30.21 in 10.0 mi South 5.8 mph - N/A   Clear
5:35 AM 31.8 °F 25.4 °F 24.6 °F 75% 30.22 in 10.0 mi South 6.9 mph - N/A   Clear
5:54 AM 31.8 °F 26.2 °F 24.8 °F 75% 30.21 in 10.0 mi South 5.8 mph - N/A   Clear
6:14 AM 31.8 °F 27.3 °F 24.8 °F 75% 30.21 in 10.0 mi South 4.6 mph - N/A   Clear
6:35 AM 31.6 °F 26.0 °F 25.3 °F 78% 30.21 in 10.0 mi South 5.8 mph - N/A   Clear
6:54 AM 31.5 °F 25.8 °F 25.3 °F 78% 30.21 in 10.0 mi South 5.8 mph - N/A   Clear
7:14 AM 31.1 °F 24.5 °F 25.3 °F 79% 30.21 in 10.0 mi South 6.9 mph - N/A   Clear
7:34 AM 30.9 °F 25.2 °F 25.3 °F 80% 30.21 in 10.0 mi South 5.8 mph - N/A   Clear
7:54 AM 30.4 °F 24.5 °F 25.2 °F 81% 30.21 in 10.0 mi South 5.8 mph - N/A   Clear
8:15 AM 30.6 °F 23.8 °F 25.5 °F 82% 30.21 in 10.0 mi South 6.9 mph - N/A   Clear
8:34 AM 31.1 °F 25.4 °F 25.7 °F 80% 30.21 in 10.0 mi SSE 5.8 mph - N/A   Clear
8:54 AM 31.8 °F 25.4 °F 25.9 °F 79% 30.20 in 10.0 mi SSE 6.9 mph - N/A   Clear
9:15 AM 32.4 °F 26.0 °F 26.2 °F 78% 30.20 in 10.0 mi SSE 6.9 mph - N/A   Clear
9:34 AM 33.3 °F 27.9 °F 26.6 °F 77% 30.20 in 10.0 mi SSE 5.8 mph - N/A   Clear
9:54 AM 34.9 °F 29.9 °F 27.0 °F 73% 30.19 in 10.0 mi SSE 5.8 mph - N/A   Clear
10:14 AM 36.5 °F 29.7 °F 27.5 °F 70% 30.19 in 10.0 mi South 9.2 mph - N/A   Clear
10:34 AM 38.3 °F 30.1 °F 28.0 °F 67% 30.18 in 10.0 mi South 13.8 mph 17.3 mph N/A   Clear
10:55 AM 39.0 °F 31.8 °F 28.2 °F 65% 30.18 in 10.0 mi South 11.5 mph - N/A   Clear
11:14 AM 39.6 °F 33.0 °F 28.0 °F 63% 30.18 in 10.0 mi South 10.4 mph 18.4 mph N/A   Clear
11:34 AM 40.3 °F 32.6 °F 27.5 °F 60% 30.17 in 10.0 mi South 13.8 mph 19.6 mph N/A   Clear
11:55 AM 41.2 °F 35.0 °F 27.1 °F 57% 30.15 in 10.0 mi South 10.4 mph - N/A   Clear
12:14 PM 42.1 °F 34.5 °F 26.2 °F 53% 30.14 in 10.0 mi SW 15.0 mph 20.7 mph N/A   Clear
12:34 PM 43.0 °F 36.8 °F 25.3 °F 50% 30.13 in 10.0 mi SSW 11.5 mph 19.6 mph N/A   Clear
12:55 PM 43.9 °F 35.9 °F 24.1 °F 46% 30.13 in 10.0 mi SSW 18.4 mph 23.0 mph N/A   Clear
1:14 PM 44.2 °F 37.6 °F 24.3 °F 45% 30.13 in 10.0 mi SSW 13.8 mph 20.7 mph N/A   Clear
1:34 PM 43.9 °F 36.5 °F 24.6 °F 47% 30.12 in 10.0 mi SSW 16.1 mph 21.9 mph N/A   Clear
1:55 PM 43.9 °F 37.2 °F 25.3 °F 48% 30.11 in 10.0 mi SSW 13.8 mph 18.4 mph N/A   Clear
2:14 PM 43.5 °F 39.4 °F 25.7 °F 50% 30.09 in 10.0 mi SSW 6.9 mph - N/A   Clear
2:35 PM 44.8 °F 37.1 °F 23.2 °F 43% 30.08 in 10.0 mi SW 18.4 mph 21.9 mph N/A   Clear
2:55 PM 45.0 °F 37.9 °F 22.3 °F 41% 30.08 in 10.0 mi SW 16.1 mph 21.9 mph N/A   Clear
3:14 PM 45.3 °F 40.1 °F 22.1 °F 40% 30.08 in 10.0 mi SW 10.4 mph 16.1 mph N/A   Clear
3:34 PM 46.0 °F 39.3 °F 21.4 °F 38% 30.08 in 10.0 mi SW 16.1 mph 26.5 mph N/A   Clear
3:55 PM 44.8 °F 39.4 °F 22.5 °F 41% 30.07 in 10.0 mi SSW 10.4 mph - N/A   Clear
4:14 PM 44.1 °F 37.4 °F 21.2 °F 40% 30.07 in 10.0 mi SW 13.8 mph 21.9 mph N/A   Clear
4:34 PM 43.5 °F 38.3 °F 21.6 °F 42% 30.06 in 10.0 mi South 9.2 mph - N/A   Clear
4:55 PM 43.2 °F 36.2 °F 21.6 °F 42% 30.06 in 10.0 mi SSW 13.8 mph 19.6 mph N/A   Clear
5:34 PM 42.8 °F 37.5 °F 21.4 °F 43% 30.04 in 10.0 mi SSW 9.2 mph - N/A   Clear
7:54 PM 36.7 °F 32.9 °F 22.1 °F 56% 30.07 in 10.0 mi South 4.6 mph - N/A   Clear
8:14 PM 35.2 °F 31.2 °F 22.8 °F 61% 30.07 in 10.0 mi South 4.6 mph - N/A   Clear
8:35 PM 38.1 °F 35.7 °F 22.3 °F 53% 30.08 in 10.0 mi South 3.5 mph - N/A   Clear
8:54 PM 36.5 °F 32.7 °F 23.7 °F 60% 30.08 in 10.0 mi South 4.6 mph - N/A   Clear
9:14 PM 34.9 °F 30.8 °F 23.9 °F 64% 30.07 in 10.0 mi South 4.6 mph - N/A   Clear
9:35 PM 35.6 °F 29.9 °F 24.8 °F 65% 30.07 in 10.0 mi South 6.9 mph - N/A   Clear
9:54 PM 33.4 °F 28.1 °F 25.3 °F 72% 30.07 in 10.0 mi South 5.8 mph - N/A   Clear
10:14 PM 35.4 °F 31.5 °F 26.4 °F 70% 30.07 in 10.0 mi South 4.6 mph - N/A   Clear
10:35 PM 34.9 °F 32.0 °F 26.6 °F 72% 30.07 in 10.0 mi South 3.5 mph - N/A   Clear
10:54 PM 33.8 °F 30.8 °F 26.2 °F 74% 30.07 in 10.0 mi South 3.5 mph - N/A   Clear
11:14 PM 29.3 °F - 25.3 °F 85% 30.07 in 10.0 mi Calm Calm - N/A   Clear
11:35 PM 30.2 °F - 28.0 °F 92% 30.08 in 10.0 mi Calm Calm - N/A   Clear
11:54 PM 29.3 °F 25.6 °F 26.8 °F 90% 30.08 in 10.0 mi SW 3.5 mph - N/A   Clear